Weather History for KIND - June, 2013

Change the Weather History Date:

Wednesday, June 12, 2013

  Actual Average Record
Temperature  
Mean Temperature 79 °F 71 °F  
Max Temperature 88 °F 81 °F 96 °F (1894)
Min Temperature 69 °F 61 °F 42 °F (1903)
Degree Days  
Heating Degree Days 0 0  
Month to date heating degree days 9 13  
Since 1 June heating degree days 9 13  
Since 1 July heating degree days 5405 5375  
Cooling Degree Days 14 7  
Month to date cooling degree days 54 68  
Year to date cooling degree days 183 152  
Since 1 June cooling degree days 54 68  
Growing Degree Days 28 (Base 50)    
Moisture  
Dew Point 70 °F    
Average Humidity 76    
Maximum Humidity 93    
Minimum Humidity 59    
Precipitation  
Precipitation 0.00 in 0.13 in 3.04 in (2005)
Month to date precipitation 1.34 1.71  
Year to date precipitation 23.17 19.11  
Snow  
Snow 0.00 in 0.00 in T in (1994)
Month to date snowfall 0.0 0.0  
Since 1 June snowfall 0.0 0.0  
Since 1 July snowfall 34.5 25.9  
Snow Depth 0.00 in    
Sea Level Pressure  
Sea Level Pressure 29.82 in    
Wind  
Wind Speed 11 mph (SW)    
Max Wind Speed 26 mph    
Max Gust Speed 35 mph    
Visibility 10 miles    
Events      
T = Trace of Precipitation, MM = Missing Value Source: NWS Daily Summary

Daily Weather History Graph

Daily Weather History Graph

Search for Another Location

Airport or City:

Trip Planner

Search our weather history database for the weather conditions in past years. The results will help you decide how hot, cold, wet, or windy it might be!

Date:

Astronomy

Jun. 12, 2013 Rise Set
Actual Time 6:16 AM EDT 9:13 PM EDT
Civil Twilight 5:44 AM EDT 9:46 PM EDT
Nautical Twilight 5:03 AM EDT 10:27 PM EDT
Astronomical Twilight 4:15 AM EDT 11:15 PM EDT
Moon 9:55 AM EDT (6/12) 11:49 PM EDT (6/12)
Length of Visible Light 16h 02m
Length of Day
14h 56m
Waxing Crescent, 14% of the Moon is Illuminated
Jun 12
Waxing Crescent
Jun 16
First Quarter
Jun 23
Full
Jun 30
Last Quarter
Jul 8
New

Hourly Weather History & Observations

Time (EDT) Temp. Heat Index Dew Point Humidity Pressure Visibility Wind Dir Wind Speed Gust Speed Precip Events Conditions
12:54 AM 73.0 °F - 66.0 °F 79% 29.87 in 10.0 mi South 5.8 mph - N/A   Mostly Cloudy
1:54 AM 72.0 °F - 66.0 °F 81% 29.86 in 10.0 mi SSW 5.8 mph - N/A   Mostly Cloudy
2:54 AM 70.0 °F - 66.0 °F 87% 29.86 in 10.0 mi SSW 4.6 mph - N/A   Mostly Cloudy
3:54 AM 70.0 °F - 66.0 °F 87% 29.86 in 10.0 mi SW 3.5 mph - N/A   Scattered Clouds
4:54 AM 72.0 °F - 68.0 °F 87% 29.85 in 9.0 mi WSW 10.4 mph - N/A   Mostly Cloudy
5:54 AM 71.1 °F - 69.1 °F 93% 29.88 in 8.0 mi WSW 8.1 mph - N/A   Mostly Cloudy
6:54 AM 73.0 °F - 70.0 °F 90% 29.88 in 9.0 mi WNW 3.5 mph - N/A   Mostly Cloudy
7:54 AM 75.9 °F - 70.0 °F 82% 29.89 in 9.0 mi Calm Calm - N/A   Scattered Clouds
8:54 AM 75.9 °F - 71.1 °F 85% 29.90 in 10.0 mi SW 4.6 mph - N/A   Mostly Cloudy
9:54 AM 78.1 °F - 72.0 °F 81% 29.92 in 10.0 mi WSW 3.5 mph - N/A   Mostly Cloudy
10:54 AM 80.1 °F 83.8 °F 72.0 °F 76% 29.91 in 10.0 mi SW 8.1 mph 17.3 mph N/A   Mostly Cloudy
11:54 AM 82.9 °F 88.0 °F 72.0 °F 69% 29.89 in 10.0 mi SW 10.4 mph - N/A   Mostly Cloudy
12:54 PM 86.0 °F 91.5 °F 71.1 °F 61% 29.87 in 10.0 mi WSW 13.8 mph - N/A   Mostly Cloudy
1:54 PM 87.1 °F 93.6 °F 72.0 °F 61% 29.83 in 10.0 mi SW 10.4 mph - N/A   Mostly Cloudy
2:54 PM 86.0 °F 91.5 °F 71.1 °F 61% 29.79 in 10.0 mi SSW 19.6 mph 23.0 mph N/A   Overcast
3:54 PM 84.9 °F 90.7 °F 72.0 °F 65% 29.79 in 10.0 mi SSW 16.1 mph - N/A   Mostly Cloudy
4:54 PM 84.9 °F 91.4 °F 73.0 °F 67% 29.78 in 10.0 mi SSW 11.5 mph - N/A   Mostly Cloudy
5:54 PM 84.9 °F 90.7 °F 72.0 °F 65% 29.76 in 10.0 mi SSW 16.1 mph - N/A   Mostly Cloudy
6:54 PM 87.1 °F 93.6 °F 72.0 °F 61% 29.73 in 10.0 mi SSW 12.7 mph - N/A   Scattered Clouds
7:54 PM 84.9 °F 90.1 °F 71.1 °F 63% 29.73 in 10.0 mi SW 10.4 mph - N/A   Mostly Cloudy
8:54 PM 84.0 °F 88.4 °F 70.0 °F 63% 29.69 in 10.0 mi SSW 11.5 mph - N/A   Mostly Cloudy
9:54 PM 84.0 °F 87.8 °F 69.1 °F 61% 29.68 in 10.0 mi SSW 16.1 mph 24.2 mph N/A   Mostly Cloudy
10:54 PM 82.9 °F 86.5 °F 69.1 °F 63% 29.68 in 10.0 mi SSW 13.8 mph - N/A   Overcast
11:54 PM 82.9 °F 86.5 °F 69.1 °F 63% 29.65 in 10.0 mi SSW 20.7 mph 28.8 mph N/A   Overcast